BREEZE-M DEB (TANK)

基本信息
目录编号:
38344
目录名称:
BREEZE-M DEB (TANK)
国际标识:
2012-026C
轨道中心:
EARTH
物体状态:
在轨
发射日期:
2012-05-17 UTC
轨道信息
数据来源: 国际轨道数据
星历时间: 2026-09-11T22:43:12+0800
半长轴: 17354.165km
偏心率: 0.6164194
轨道倾角: 49.315°
近地点辐角: 297.702°
升交点赤经: 262.458°
平近点角: 13.625°
近地点: 278.584km
远地点: 21673.472km
周期: 379.197分钟
每日圈数: 3.797495
详细信息
发射场:
TTMTR
轨道高度:
LEO
数据来源:
AOE Integration Group
参考系:
TEME
时间系统:
UTC
历元类型:
SGP4
2D轨道图
3D轨道图
轨道高度分析图
轨道倾角分析图
轨道综合分析图
查看轨道综合分析图